Regional Weather Roundup
Issued by NWS

Home | Current Version | Previous Version | Graphics & Text | Print | Product List | Glossary On
Versions: 1 2 3 4 5 6 7 8 9 10 11 12 13 14 15 16 17 18 19 20 21 22 23 24 25 26 27 28 29 30 31 32 33 34 35 36 37 38 39 40 41 42 43 44 45 46 47 48 49 50
000
ASUS43 KBIS 191631
RWRND
NORTH DAKOTA REGIONAL WEATHER ROUNDUP
NATIONAL WEATHER SERVICE EASTERN NORTH DAKOTA/GRAND FORKS ND
1100 AM CDT THU APR 19 2018

  NOTE: "FAIR" INDICATES FEW OR NO CLOUDS BELOW 12,000 FEET WITH NO
  SIGNIFICANT WEATHER AND/OR OBSTRUCTIONS TO VISIBILITY.

NDZ001>003-009>011-017-191700-
...NORTHWEST NORTH DAKOTA...

CITY           SKY/WX    TMP DP  RH WIND       PRES   REMARKS
WILLISTON      CLOUDY    38  35  89 VRB5      30.41S FOG     WCI  34
MINOT          CLOUDY    40  35  83 NW7       30.42R HAZE
MINOT AFB      CLOUDY    37  36  93 VRB6      30.41S WCI  33
$$

NDZ018>021-031>035-040>046-191700-
...SOUTHWEST NORTH DAKOTA...

CITY           SKY/WX    TMP DP  RH WIND       PRES   REMARKS
BISMARCK       FAIR      40  34  79 VRB3      30.44R
DICKINSON      FAIR      43  38  82 NE7       30.34F
GARRISON         N/A     38  34  85 N6        30.42R WCI  33
HETTINGER      FAIR      47  34  60 SE8       30.36F
$$

NDZ004>008-012>016-024-026-027-054-191700-
...NORTHEAST NORTH DAKOTA...

CITY           SKY/WX    TMP DP  RH WIND       PRES   REMARKS
GRAND FORKS    FAIR      48  32  53 SE5       30.41R
GRAND FORKS AF NOT AVBL
DEVILS LAKE    FAIR      42  30  62 W6        30.41S
$$

NDZ022-023-025-028>030-036>039-047>053-191700-
...SOUTHEAST NORTH DAKOTA...

CITY           SKY/WX    TMP DP  RH WIND       PRES   REMARKS
JAMESTOWN      FAIR      47  32  56 W3        30.41R
FARGO          FAIR      48  29  47 W3        30.43R
WAHPETON       FAIR      43  32  65 SW6       30.46R
$$



USA.gov is the U.S. government's official web portal to all federal, state and local government web resources and services.